Location: Six Mile Lake
(44.9000°N, 79.7170°W)
Time: 03:53:08
(UTC-04:00)

JY1SAT - Pass Details

Date: 30 June 2022
Orbit: 564 x 586 km, 97.6° (Epoch: 07 August)

Event Time Altitude Azimuth Distance (km) Brightness Sun altitude
Exits shadow 00:08:39 - 237° (WSW) 2,144 ? -19.9°
Reaches altitude 10° 00:09:57 10° 252° (WSW) 1,913 ? -19.9°
Maximum altitude 00:11:18 11° 271° (W) 1,827 ? -20.0°
Drops below altitude 10° 00:12:39 10° 291° (WNW) 1,918 ? -20.1°
Sets 00:16:23 0° 325° (NW) 2,826 ? -20.3°
